#timestamp,LO_Frequency,Hit,StdDev 
1613152815.7,286046986.7,N
1613152835.5,286046992.6,N
1613152855.3,286046994.3,N
1613152875.2,286046987.8,N
1613152895.0,286046989.6,N
1613152895.9,286046989.6,N
1613152915.8,286046995.2,N
1613152935.6,286046990.1,N
1613152955.4,286046990.3,N
1613152975.3,286046982.1,N
1613152995.1,286046985.6,N
1613153015.8,286046985.6,N
1613153035.7,286046986.1,N
1613153055.5,286046985.0,N
1613153075.4,286046983.7,N
1613153095.2,286046986.6,N
1613153115.0,286046993.1,N
1613153115.9,286046993.1,N
1613153135.8,286046999.0,N
1613153155.6,286046995.5,N
1613153175.4,286046998.8,N
1613153195.3,286046997.6,N
1613153215.1,286046992.2,N
1613153235.9,286046997.6,N
1613153255.7,286046997.6,N
1613153275.5,286046999.2,N
1613153295.4,286046994.9,N
1613153315.2,286046998.1,N
1613153335.0,286046993.9,N
1613153335.9,286046993.9,N
1613153355.8,286046997.5,N
1613153375.6,286047003.3,N
1613153395.5,286046997.9,N
1613153415.3,286046994.2,N
1613153435.1,286047000.8,N
1613153455.9,286046992.6,N
1613153475.7,286046993.4,N
1613153495.5,286046993.2,N
1613153515.4,286047004.3,N
1613153535.2,286047001.9,N
1613153555.1,286047003.1,N
1613153556.0,286047003.1,N
1613153575.8,286047003.5,N
1613153595.6,286046998.3,N
1613153615.5,286046999.5,N
1613153635.3,286047006.4,N
1613153655.1,286047005.8,N
1613153675.9,286047003.9,N
1613153695.7,286046995.0,N
1613153715.6,286046998.0,N
1613153735.4,286047000.5,N
1613153755.2,286046999.6,N
1613153775.1,286047000.7,N
1613153776.0,286047000.7,N
1613153795.8,286046997.6,N
1613153815.6,286047001.3,N
1613153835.5,286047007.3,N
1613153855.3,286047005.3,N
1613153875.2,286047005.9,N
1613153895.9,286047005.6,N
1613153915.7,286047012.8,Y
1613153935.6,286047012.4,P
1613153955.4,286047016.8,N
1613153975.3,286047024.9,P
1613153995.1,286047016.7,N
1613153996.0,286047016.7,N
1613154015.8,286047007.7,N
1613154035.7,286047011.3,N
1613154055.5,286047011.5,N
1613154075.3,286047015.0,N
1613154095.2,286047014.7,N
1613154115.0,286047010.0,N
1613154115.9,286047010.0,N
1613154135.8,286047011.6,N
1613154155.6,286047002.8,N
1613154175.4,286047001.0,N
1613154195.3,286046995.4,N
1613154215.1,286046995.3,N
1613154235.8,286046995.4,N
1613154255.7,286046995.6,N
1613154275.5,286046997.9,N
1613154295.4,286047002.2,N
1613154315.2,286047003.8,N
1613154335.0,286047005.3,N
1613154335.9,286047005.3,N
1613154355.8,286047002.5,N
1613154375.6,286047004.5,N
1613154395.4,286047003.8,N
1613154415.3,286047004.0,N
1613154435.1,286047002.8,N
1613154455.9,286047002.4,N
1613154475.7,286047002.6,N
1613154495.5,286047006.0,N
1613154515.4,286047010.3,N
1613154535.2,286047009.7,N
1613154555.0,286047001.6,N
1613154556.0,286047001.6,N
1613154575.8,286047000.1,N
1613154595.6,286047005.5,N
1613154615.5,286047008.7,N
1613154635.3,286047009.3,N
1613154655.1,286047013.6,N
1613154675.9,286047012.9,N
1613154695.7,286047008.0,N
1613154715.6,286047009.7,N
1613154735.4,286047009.6,N
1613154755.2,286047011.2,N
1613154775.1,286047014.7,Y
1613154776.0,286047014.7,P
1613154795.8,286047011.9,N
1613154815.6,286047012.0,N
1613154835.5,286047012.6,Y
1613154855.3,286047002.1,P
1613154875.2,286047002.0,N
1613154895.9,286047014.8,P
1613154915.7,286047021.5,Y
1613154935.6,286047010.2,P
1613154955.4,286047005.8,P
1613154975.2,286047005.4,N
1613154995.1,286046997.9,N
1613154996.0,286046997.9,N
1613155015.8,286046996.2,N
1613155035.7,286047000.1,N
1613155055.5,286047002.9,N
1613155075.3,286047005.7,N
1613155095.2,286047005.9,N
1613155115.0,286047001.6,N
1613155115.9,286047001.6,N
1613155135.8,286047005.8,N
1613155155.8,286047010.7,N
1613155175.6,286047003.0,N
1613155195.5,286047002.2,N
1613155215.3,286046998.7,N
1613155235.2,286046999.6,N
1613155255.9,286046998.9,N
1613155275.7,286046997.9,N
1613155295.6,286046993.5,N
1613155315.4,286046994.6,N
1613155335.2,286047002.8,N
1613155355.1,286046996.7,N
1613155356.0,286046996.7,N
1613155375.8,286047001.4,N
1613155395.7,286047000.6,N
1613155415.5,286046995.9,N
1613155435.3,286047002.4,N
1613155455.2,286046997.3,N
1613155475.0,286047005.8,N
1613155475.9,286047005.8,N
1613155495.7,286047002.6,N
1613155515.6,286046999.9,N
1613155535.4,286047001.0,N
1613155555.3,286047003.2,N
1613155575.1,286046999.3,N
1613155576.0,286046999.3,N
1613155595.8,286047002.0,N
1613155615.7,286047006.5,N
1613155635.5,286047003.7,N
1613155655.3,286047004.2,N
1613155675.2,286047009.8,N
1613155695.0,286047013.1,Y
1613155695.9,286047013.1,P
1613155715.8,286047010.4,N
1613155735.6,286047006.6,N
1613155755.4,286047004.2,N
1613155775.3,286047006.9,N
1613155795.1,286047007.0,N
1613155815.9,286047005.7,N
1613155835.7,286046998.6,N
1613155855.5,286046999.3,N
1613155875.4,286046993.6,N
1613155895.2,286047000.2,N
1613155915.0,286046995.0,N
1613155915.9,286046995.0,N
1613155935.8,286047001.9,N
1613155955.6,286046999.8,N
1613155975.5,286047000.3,N
1613155995.3,286046997.5,N
1613156015.1,286046998.6,N
1613156035.9,286046990.0,N
1613156055.7,286046992.7,N
1613156075.5,286046992.1,N
1613156095.4,286046993.7,N
1613156115.2,286046999.4,N
1613156135.1,286046996.0,N
1613156136.0,286046996.0,N
1613156155.8,286047004.6,N
1613156175.6,286047007.2,N
1613156195.5,286047004.5,N
1613156215.3,286046996.7,N
1613156235.1,286046997.6,N
1613156255.9,286047006.9,N
1613156275.7,286047004.2,N
1613156295.6,286047010.5,N
1613156315.4,286047007.9,N
1613156335.2,286047010.4,N
1613156355.1,286047009.2,N
1613156356.0,286047009.2,N
1613156375.8,286047023.5,Y
1613156395.7,286047024.4,P
